www.pogodaiklimat.ru

Погода и климат >> Архив погоды >> Россия >> Астраханская область >> Досанг


ПОГОДА в Досанге

  • Прогноз погоды в Досанге
  • Монитор погоды в Досанге
  • Климат города

АРХИВ ПОГОДЫ в Досанге

Время (UTC), дата Ветер
(напр.,м/с)
 
Видим.   Явления Облачность Т
(С)
Тd
(С)
f
(%)
Тe
(С)
Тes
(С)
Комфортность P
(гПа)
Po
(гПа)
Тmin
(С)
Tmax
(С)
R
(мм)
R24
(мм)
S
(см)
21 10.10 СЗ 4 10 км 10/6 600 м
[Sc Ac trans]
+14.2 +6.4 59 +13 +13 1016.5 1018.7
00 11.10 СЗ 3 10 км 3/0
[Ci fib]
+10.7 +6.1 73 +9 +9 1017.2 1019.4
03 11.10 СЗ 4 10 км 10/0
[Ac trans Cc]
+9.5 +6.6 82 +7 +7 1018.0 1020.2 +9.5
06 11.10 СЗ 5 20 км 10/0
[Ac trans Cs]
+14.5 +7.2 62 +13 +14 1019.0 1021.2
09 11.10 СЗ 5 20 км 10/0
[Ac As]
+16.5 +5.3 47 +16 +17 1019.2 1021.4
12 11.10 СЗ 4 10 км дождь 10/8 300 м
[Frnb As op]
+14.5 +8.4 67 +13 +13 1020.0 1022.2
15 11.10 штиль 0 10 км {дождь} 10/4 300 м
[Frnb Ac As]
+12.9 +10.2 84 +12 +12 1020.8 1023.0 +16.6 0.1
18 11.10 СЗ 3 10 км {дождь} 10/0
[Ac und]
+12.4 +6.2 66 +11 +11 1021.2 1023.4
21 11.10 СЗ 3 10 км 10/0
[Ac und]
+9.7 +2.7 62 +8 +8 1021.3 1023.5
00 12.10 СЗ 3 10 км 3/0
[Ac trans]
+5.8 -0.6 63 +3 +3 1021.5 1023.7
03 12.10 СЗ 2 10 км 3/0
[Ac trans]
+3.2 -1.4 72 0 0 1021.6 1023.9 +3.0
06 12.10 С 2 20 км 3/0
[Ac As Ci fib]
+11.6 +2.9 55 +11 +14 1022.4 1024.6
09 12.10 С 2 20 км 8/0
[Ac trans Cc]
+15.9 +1.7 38 +16 +21 1021.4 1023.6
12 12.10 СЗ 1 20 км 8/0
[Ac cast Cc]
+17.5 -0.9 29 +19 +21 1020.9 1023.0
15 12.10 З 1 10 км 3/0
[Ac cast Ci sp]
+11.3 +1.9 52 +11 +11 1021.0 1023.2 +17.9
18 12.10 штиль 0 10 км 3/0
[Ci sp]
+6.5 +2.4 75 +6 +6 1020.8 1023.1
21 12.10 ЮВ 2 10 км 8/0
[Ci sp]
+5.8 +1.2 72 +4 +4 1019.8 1022.0
00 13.10 Ю 2 10 км 10/0
[Ac und]
+10.5 +2.9 59 +9 +9 1018.5 1020.7
03 13.10 ЮЗ 1 10 км слабый дождь 10/5 300 м
[Frnb Ac As]
+9.5 +6.3 80 +9 +9 1018.1 1020.3 +5.0 0.3
06 13.10 З 2 20 км в посл. час дождь 10/3 300 м
[Frnb As op]
+11.3 +9.6 89 +10 +10 1018.9 1021.1
09 13.10 З 2 20 км в посл. час дождь 9/3 300 м
[Frnb As op]
+11.3 +9.6 89 +10 +12 1018.9 1021.1
12 13.10 З 3 20 км 9/6 600 м
[Cu Sc Ac cuf Ci fib]
+15.8 +7.1 56 +15 +16 1017.6 1019.8
15 13.10 ЮЗ 1 10 км 8/0
[Ac As]
+10.3 +6.8 79 +10 +10 1017.7 1019.9 +16.4 0.3
18 13.10 Ю 1 10 км ясно +10.8 +6.4 74 +11 +11 1017.3 1019.5
21 13.10 Ю 2 10 км 10/0
[Ac As]
+12.0 +7.4 73 +11 +11 1016.5 1018.7
00 14.10 Ю 2 10 км 10/10 600 м
[Sc]
+12.1 +9.0 81 +11 +11 1015.8 1018.0
03 14.10 Ю 1 10 км 10/6 600 м
[Sc Ac trans]
+11.7 +9.0 83 +12 +12 1015.9 1018.1 +8.1
06 14.10 Ю 3 20 км {дождь} 10/0
[Ac trans Cc]
+15.5 +9.1 66 +15 +16 1016.0 1018.2
09 14.10 ЮЗ 5
{10}
20 км 10/3 600 м
[Cu hum Ac trans]
+20.4 +6.4 40 +21 +22 комфорт 1014.8 1016.9
12 14.10 ЮЗ 3 20 км 10/3 600 м
[Cu med, cong Ac trans Cc]
+20.9 +5.4 36 +22 +23 комфорт 1013.5 1015.6
15 14.10 Ю 2 10 км 10/4 600 м
[Sc Ac cast Cs]
+17.0 +6.2 49 +17 +17 1013.9 1016.0 +21.3 0.3
18 14.10 З 2 10 км слабый дождь 10/9 300 м
[Frnb As op]
+12.7 +10.5 86 +12 +12 1015.4 1017.6
21 14.10 ЮЗ 2 4000 м дождь 10/9 300 м
[Frnb As op]
+11.8 +10.5 92 +11 +11 1015.1 1017.3
00 15.10 ЮЗ 1 10 км {дождь} 10/0
[Ac und]
+10.9 +9.9 94 +10 +10 1013.6 1015.8
03 15.10 Ю 1 10 км 10/0
[Ac As]
+10.1 +9.2 94 +10 +10 1013.7 1015.9 +10.1 5
06 15.10 ЮЗ 2 10 км дымка 10/0
[Ac As]
+10.9 +9.7 92 +9 +10 1013.0 1015.2 +9.9
09 15.10 З 3 20 км 8/8 600 м
[Sc diur, vesp]
+14.7 +8.5 66 +14 +15 1012.0 1014.2
12 15.10 ЮЗ 2 20 км 10/8 600 м
[Cu med, cong Ac As]
+13.6 +7.0 64 +13 +13 1010.3 1012.5
15 15.10 ЮЗ 1 10 км 10/8 600 м
[Sc Ac As]
+12.4 +5.3 62 +13 +13 1009.7 1011.8 +15.2
18 15.10 З 3 10 км 10/0
[Ac As]
+10.0 +4.3 68 +8 +8 1008.3 1010.5
21 15.10 ЮЗ 3 10 км 10/0
[Ac As]
+8.8 +3.1 67 +7 +7 1005.1 1007.3
00 16.10 Ю 4 10 км в посл. час дождь 10/6 300 м
[Frnb As op]
+6.9 +5.7 92 +3 +3 1001.4 1003.6
03 16.10 ЮЗ 3
{11}
10 км слабый дождь 10/6 300 м
[Frnb As op]
+8.8 +7.8 93 +6 +6 998.3 1000.5 +6.8 1
06 16.10 З 5
{12}
20 км {дождь} 10/8 600 м
[Cu Sc Ac trans]
+10.0 +7.1 82 +7 +7 999.9 1002.1
09 16.10 З 5
{12}
20 км {ливн. осадки} 10/10 300 м
[Cu Sc]
+10.8 +5.7 71 +8 +8 1000.8 1002.9
12 16.10 З 4
{13}
10 км слабый дождь {ливн. осадки} 10/9 300 м
[Frnb As op]
+7.5 +5.4 87 +4 +4 1002.6 1004.8
15 16.10 З 5-10
{14}
10 км {дождь} 10/8 300 м
[Frnb As op]
+7.2 +4.1 81 +3 +3 1006.9 1009.1 +10.9 2
18 16.10 З 4
{10}
10 км слабый дождь 10/8 300 м
[Frnb As op]
+7.3 +4.9 85 +4 +4 1007.4 1009.6
21 16.10 З 5
{11}
10 км слабый дождь 10/9 300 м
[Frnb As op]
+7.1 +4.9 86 +3 +3 1007.9 1010.1
00 17.10 З 4
{11}
10 км {дождь} 10/6 300 м
[Frnb As op]
+6.6 +5.1 90 +3 +3 1008.0 1010.2
03 17.10 З 4
{11}
10 км слабый дождь 10/8 300 м
[Frnb As op]
+6.6 +5.1 90 +3 +3 1008.4 1010.6 +6.5 1
06 17.10 З 7-12
{14}
4000 м слабая морось {дождь} 10/10 300 м
[St]
+7.2 +5.1 86 +2 +2 1010.1 1012.3
09 17.10 З 6-10
{13}
20 км {морось} 10/10 300 м
[St]
+8.3 +5.6 83 +4 +4 1011.2 1013.4
12 17.10 З 6-12
{12}
20 км {морось} 10/10 300 м
[St]
+9.6 +4.4 70 +6 +6 1012.3 1014.5
15 17.10 З 4
{12}
10 км 10/10 600 м
[Sc]
+9.5 +3.4 66 +7 +7 1013.7 1015.9 +9.6 0.8

 

Местоположение метеостанции Досанг (Астраханская область, Россия): широта 46.92 долгота 47.93 высота над уровнем моря -19 м.

В архиве по умолчанию представлена погода в Досанге за последнюю неделю. Архивные данные за месяц целиком и за предыдущие месяцы, начиная с января 2011 года, Вы можете получить, выбрав интересующий диапазон дат из раскрывающегося списка и нажав кнопку "Ввод!".

Внимание! Время в таблицах - всемирное. Для получения местного времени необходимо прибавить поправку, которая в Досанге равна 4 ч.

Смотрите также архив погоды в соседних городах и на ближайших метеорологических станциях:

Погода в Астрахани (Астраханская область, Россия) (71 км)
Погода в Харабали (Астраханская область, Россия) (74 км)
Погода в Зеленге (Астраханская область, Россия) (98 км)
Погода в Ганюшкино (Атырауская область, Казахстан) (108 км)
Погода в Юсте (Калмыкия, Россия) (124 км)
Погода в Жанауштогане (Атырауская область, Казахстан) (127 км)
Погода в Лимане (Астраханская область, Россия) (136 км)
Погода в Утте (Калмыкия, Россия) (158 км)
Погода в Исатай (Атырауская область, Казахстан) (163 км)
Погода в Верхнем Баскунчаке (Астраханская область, Россия) (170 км)

Пояснения к столбцам:

Ветер - указаны скорость ветра в м/с - средняя за 10 мин, порывы в срок и между сроками (в фигурных скобках) и направление, откуда дует ветер: С - северный, СВ - северо-восточный, В - восточный, ЮВ - юго-восточный, Ю - южный, ЮЗ - юго-западный, З - западный, СЗ - северо-западный.
Видимость - горизонтальная дальность видимости в метрах или километрах. При видимости от 1 до 10 км при отсутствии осадков обычно наблюдается дымка, при ухудшении видимости до 1 км и менее - туман. В сухую погоду видимость может ухудшаться дымом, пылью или мглою.
Явления - указаны атмосферные явления, наблюдавшиеся в срок или в последний час перед сроком; фигурными скобками обозначены явления, наблюдавшиеся между сроками (за 1-3 часа до срока); квадратными скобками обозначены град или гололедные отложения с указанием их диаметра в мм.
Облачность - указаны через наклонную черту общая и нижняя облачность в баллах и высота нижней границы облаков в метрах; квадратными скобками обозначены формы облаков: Ci - перистые, Cs - перисто-слоистые, Cc - перисто-кучевые, Ac - высококучевые, As - высокослоистые, Sc - слоисто-кучевые, Ns - слоисто-дождевые, Cu - кучевые, Cb - кучево-дождевые. Подробнее классификацию облаков см. в Атласе облаков (PDF).
T - Температура воздуха - температура, измеренная на высоте 2 м над землей.
Td - Температура точки росы - температура, при понижении до которой содержащийся в воздухе водяной пар достигнет насыщения.
f - Относительная влажность воздуха - влажноcть воздуха, измеренная на высоте 2 м над землей.
Te - Эффективная температура - температура, которую ощущает одетый по сезону человек в тени. Характеристика душности погоды. При расчете учитывается влияние влажности воздуха и скорости ветра на теплоощущения человека.
Tes - Эффективная температура на солнце - температура, которую ощущает человек, с поправкой на солнечный нагрев. Характеристика знойности погоды. Зависит от высоты солнца над горизонтом, облачности и скорости ветра. Ночью, в пасмурную погоду, а также при ветре 12 м/с и более поправка равна нулю.
P - Атмосферное давление - приведенное к уровню моря атмосферное давление.
Po - Атмосферное давление - измеренное на уровне метеостанции атмосферное давление.
Tmin - Минимальная температура - минимум температуры воздуха на высоте 2 м над землей.
Tmax - Максимальная температура - максимум температуры воздуха на высоте 2 м над землей.
R - Количество осадков - Количество выпавших осадков за период времени, мм. При наведении курсора мыши на число - период времени, за который выпало указанное количество осадков.
R24 - Количество осадков - Количество выпавших осадков за 24 часа, мм.
S - Снежный покров - Высота снежного покрова, см. При наведении курсора мыши на число - состояние снежного покрова и степень покрытия местности в баллах.